カタログに戻る

STARLINK-31647

運用中通信VLEO
NORAD 59389·PAYLOAD·🇺🇸 United States

打ち上げ Apr 2, 2024 から Vandenberg Space Force Base

Loading…

次のパス (今後24時間)

TLE

最新Source: CelesTrak SupGP

元期: Sep 15, 2026, 01:59 UTC

1 59389C 24062R   26258.08312500  .00015975  00000+0  47207-3 0  2587
2 59389  53.1571  93.2687 0001416  83.0908  27.7542 15.34376773    17

AllMySatでSTARLINK-31647をリアルタイム追跡

Download on the App Store